Location: Boiro
(42.6475°N, 8.8834°W)
Time: 18:57:02
(UTC+01:00)

Transit 2A Rocket - Pass Details

Date: 08 December 2021
Orbit: 584 x 918 km, 66.7° (Epoch: 19 January)

Event Time Altitude Azimuth Distance (km) Brightness Sun altitude
Rises 14:52:14 0° 336° (NNW) 3,565 8.1 21.7°
Reaches altitude 10° 14:55:53 10° 357° (N) 2,609 7.3 21.5°
Maximum altitude 14:59:35 16° 34° (NE) 2,161 6.9 21.2°
Drops below altitude 10° 15:03:11 10° 72° (ENE) 2,536 7.4 21.0°
Sets 15:06:39 0° 93° (E) 3,418 8.2 20.7°
